H1 CPF 2 NER 2024 3 17 9 077 01 glonass145 H2 2213001 9145 54031 2024 3 17 0 0 0 2024 3 20 23 45 0 900 1 1 0 0 0 1 H9 10 0 60386 0.00000 0 -9921941.076 -8533468.424 21902706.937 10 0 60386 900.00000 0 -7238778.388 -9139645.203 22693852.037 10 0 60386 1800.00000 0 -4539932.097 -9961263.462 23044572.214 10 0 60386 2700.00000 0 -1893568.701 -10983451.784 22948011.388 10 0 60386 3600.00000 0 635657.411 -12179565.219 22405984.162 10 0 60386 4500.00000 0 2989059.901 -13512209.429 21428945.419 10 0 60386 5400.00000 0 5116122.210 -14934734.133 20035793.554 10 0 60386 6300.00000 0 6976354.354 -16393134.353 18253510.561 10 0 60386 7200.00000 0 8540728.209 -17828280.697 16116645.190 10 0 60386 8100.00000 0 9792632.135 -19178385.896 13666648.471 10 0 60386 9000.00000 0 10728305.696 -20381604.546 10951073.679 10 0 60386 9900.00000 0 11356736.898 -21378656.953 8022655.785 10 0 60386 10800.00000 0 11699026.914 -22115366.607 4938287.851 10 0 60386 11700.00000 0 11787249.722 -22545004.004 1757914.176 10 0 60386 12600.00000 0 11662855.456 -22630337.411 -1456638.054 10 0 60386 13500.00000 0 11374685.703 -22345303.297 -4642865.465 10 0 60386 14400.00000 0 10976685.480 -21676225.071 -7738809.447 10 0 60386 15300.00000 0 10525409.628 -20622527.880 -10684266.797 10 0 60386 16200.00000 0 10077430.033 -19196918.456 -13421965.776 10 0 60386 17100.00000 0 9686754.312 -17425021.779 -15898684.059 10 0 60386 18000.00000 0 9402365.951 -15344489.253 -18066286.298 10 0 60386 18900.00000 0 9265990.552 -13003615.372 -19882660.901 10 0 60386 19800.00000 0 9310183.064 -10459520.471 -21312537.808 10 0 60386 20700.00000 0 9556817.085 -7775975.331 -22328171.560 10 0 60386 21600.00000 0 10016040.180 -5020958.136 -22909876.827 10 0 60386 22500.00000 0 10685739.339 -2264045.312 -23046406.481 10 0 60386 23400.00000 0 11551539.179 426255.585 -22735165.399 10 0 60386 24300.00000 0 12587333.022 2985120.572 -21982256.339 10 0 60386 25200.00000 0 13756324.664 5353863.625 -20802357.367 10 0 60386 26100.00000 0 15012537.190 7482129.612 -19218433.458 10 0 60386 27000.00000 0 16302725.639 9329735.707 -17261287.959 10 0 60386 27900.00000 0 17568613.409 10868085.882 -14968962.576 10 0 60386 28800.00000 0 18749358.590 12081100.900 -12385997.456 10 0 60386 29700.00000 0 19784146.783 12965626.436 -9562565.578 10 0 60386 30600.00000 0 20614801.498 13531303.755 -6553498.118 10 0 60386 31500.00000 0 21188302.375 13799909.803 -3417219.712 10 0 60386 32400.00000 0 21459105.251 13804195.792 -214614.273 10 0 60386 33300.00000 0 21391166.352 13586274.341 2992156.535 10 0 60386 34200.00000 0 20959585.206 13195624.119 6140859.059 10 0 60386 35100.00000 0 20151796.897 12686796.939 9170394.133 10 0 60386 36000.00000 0 18968263.154 12116924.609 12021980.783 10 0 60386 36900.00000 0 17422632.747 11543131.138 14640294.158 10 0 60386 37800.00000 0 15541363.891 11019959.666 16974535.780 10 0 60386 38700.00000 0 13362823.705 10596922.709 18979415.614 10 0 60386 39600.00000 0 10935901.605 10316278.927 20616027.302 10 0 60386 40500.00000 0 8318193.566 10211130.044 21852600.054 10 0 60386 41400.00000 0 5573831.863 10303917.989 22665113.130 10 0 60386 42300.00000 0 2771049.584 10605385.626 23037761.390 10 0 60386 43200.00000 0 -20419.968 11114044.998 22963263.203 10 0 60386 44100.00000 0 -2732002.098 11816175.947 22443004.806 10 0 60386 45000.00000 0 -5298888.361 12686355.807 21487018.190 10 0 60386 45900.00000 0 -7662485.704 13688498.735 20113792.533 10 0 60386 46800.00000 0 -9772606.237 14777361.930 18349922.242 10 0 60386 47700.00000 0 -11589307.217 15900456.287 16229597.710 10 0 60386 48600.00000 0 -13084305.285 17000281.925 13793947.851 10 0 60386 49500.00000 0 -14241906.483 18016795.091 11090246.435 10 0 60386 50400.00000 0 -15059413.704 18890002.806 8170997.044 10 0 60386 51300.00000 0 -15546995.024 19562575.919 5092914.052 10 0 60386 52200.00000 0 -15727019.026 19982369.955 1915819.291 10 0 60386 53100.00000 0 -15632885.765 20104746.809 -1298523.892 10 0 60386 54000.00000 0 -15307403.419 19894598.422 -4487616.100 10 0 60386 54900.00000 0 -14800779.925 19327986.045 -7589442.783 10 0 60386 55800.00000 0 -14168315.304 18393324.777 -10543686.014 10 0 60386 56700.00000 0 -13467893.143 17092062.459 -13292902.831 10 0 60386 57600.00000 0 -12757378.222 15438823.418 -15783646.573 10 0 60386 58500.00000 0 -12092030.957 13461010.126 -17967508.861 10 0 60386 59400.00000 0 -11522048.524 11197878.818 -19802061.741 10 0 60386 60300.00000 0 -11090336.906 8699127.213 -21251681.651 10 0 60386 61200.00000 0 -10830608.072 6023052.941 -22288239.401 10 0 60386 62100.00000 0 -10765882.549 3234359.142 -22891643.170 10 0 60386 63000.00000 0 -10907460.331 401698.247 -23050224.466 10 0 60386 63900.00000 0 -11254403.218 -2404944.251 -22760960.090 10 0 60386 64800.00000 0 -11793550.127 -5116917.833 -22029526.289 10 0 60386 65700.00000 0 -12500064.443 -7669516.595 -20870184.424 10 0 60386 66600.00000 0 -13338490.202 -10004422.851 -19305500.612 10 0 60386 67500.00000 0 -14264272.543 -12071884.088 -17365904.912 10 0 60386 68400.00000 0 -15225678.404 -13832533.809 -15089098.546 10 0 60386 69300.00000 0 -16166036.619 -15258781.607 -12519320.578 10 0 60386 70200.00000 0 -17026203.133 -16335715.788 -9706488.166 10 0 60386 71100.00000 0 -17747147.523 -17061482.185 -6705226.896 10 0 60386 72000.00000 0 -18272551.804 -17447124.612 -3573810.040 10 0 60386 72900.00000 0 -18551311.941 -17515894.998 -373027.294 10 0 60386 73800.00000 0 -18539836.450 -17302063.339 2834994.934 10 0 60386 74700.00000 0 -18204044.989 -16849278.617 5987998.631 10 0 60386 75600.00000 0 -17520982.388 -16208550.546 9024801.160 10 0 60386 76500.00000 0 -16479979.734 -15435937.857 11886480.602 10 0 60386 77400.00000 0 -15083313.107 -14590040.996 14517516.432 10 0 60386 78300.00000 0 -13346331.619 -13729405.113 16866863.552 10 0 60386 79200.00000 0 -11297048.505 -12909942.793 18888939.123 10 0 60386 80100.00000 0 -8975211.470 -12182484.926 20544503.441 10 0 60386 81000.00000 0 -6430890.006 -11590562.579 21801418.242 10 0 60386 81900.00000 0 -3722637.394 -11168512.879 22635268.267 10 0 60386 82800.00000 0 -915302.715 -10939988.331 23029834.415 10 0 60386 83700.00000 0 1922417.445 -10916932.086 22977409.647 10 0 60386 84600.00000 0 4720587.126 -11099062.253 22478951.574 10 0 60386 85500.00000 0 7410691.797 -11473887.131 21544068.656 10 0 60387 0.00000 0 9928242.190 -12017251.064 20190840.010 10 0 60387 900.00000 0 12215215.214 -12694388.834 18445470.917 10 0 60387 1800.00000 0 14222227.848 -13461444.056 16341791.900 10 0 60387 2700.00000 0 15910358.579 -14267389.221 13920607.862 10 0 60387 3600.00000 0 17252537.495 -15056266.262 11228910.865 10 0 60387 4500.00000 0 18234448.713 -15769653.703 8318970.627 10 0 60387 5400.00000 0 18854907.488 -16349256.210 5247320.097 10 0 60387 6300.00000 0 19125696.647 -16739506.940 2073655.718 10 0 60387 7200.00000 0 19070869.645 -16890072.127 -1140326.047 10 0 60387 8100.00000 0 18725550.202 -16758151.246 -4332132.839 10 0 60387 9000.00000 0 18134279.846 -16310474.560 -7439697.167 10 0 60387 9900.00000 0 17348983.801 -15524912.534 -10402589.228 10 0 60387 10800.00000 0 16426641.924 -14391627.985 -13163197.476 10 0 60387 11700.00000 0 15426763.865 -12913721.314 -15667853.302 10 0 60387 12600.00000 0 14408775.819 -11107340.611 -17867877.407 10 0 60387 13500.00000 0 13429429.704 -9001251.090 -19720527.282 10 0 60387 14400.00000 0 12540344.398 -6635881.072 -21189827.338 10 0 60387 15300.00000 0 11785782.844 -4061883.796 -22247265.767 10 0 60387 16200.00000 0 11200758.564 -1338274.526 -22872344.983 10 0 60387 17100.00000 0 10809550.956 1469779.928 -23052975.462 10 0 60387 18000.00000 0 10624691.373 4293427.732 -22785705.867 10 0 60387 18900.00000 0 10646462.040 7062752.615 -22075785.493 10 0 60387 19800.00000 0 10862928.268 9709440.215 -20937058.191 10 0 60387 20700.00000 0 11250501.997 12169380.095 -19391690.096 10 0 60387 21600.00000 0 11775012.458 14385096.078 -17469736.538 10 0 60387 22500.00000 0 12393238.431 16307904.761 -15208556.515 10 0 60387 23400.00000 0 13054837.269 17899713.269 -12652085.995 10 0 60387 24300.00000 0 13704589.140 19134382.432 -9849984.024 10 0 60387 25200.00000 0 14284861.679 19998599.569 -6856668.061 10 0 60387 26100.00000 0 14738190.923 20492225.532 -3730257.266 10 0 60387 27000.00000 0 15009869.452 20628102.652 -531444.226 10 0 60387 27900.00000 0 15050432.283 20431332.719 2677682.872 10 0 60387 28800.00000 0 14817935.355 19938056.372 5834844.614 10 0 60387 29700.00000 0 14279930.127 19193786.044 8878777.751 10 0 60387 30600.00000 0 13415050.596 18251363.333 11750422.124 10 0 60387 31500.00000 0 12214145.309 17168627.205 14394064.041 10 0 60387 32400.00000 0 10680906.046 16005891.440 16758414.065 10 0 60387 33300.00000 0 8831965.863 14823337.478 18797598.593 10 0 60387 34200.00000 0 6696461.384 13678432.140 20472046.352 10 0 60387 35100.00000 0 4315076.444 12623478.447 21749253.117 10 0 60387 36000.00000 0 1738605.690 11703401.962 22604410.307 10 0 60387 36900.00000 0 -973903.324 10953865.174 23020885.713 10 0 60387 37800.00000 0 -3757353.665 10399788.587 22990547.332 10 0 60387 38700.00000 0 -6543057.954 10054340.271 22513924.144 10 0 60387 39600.00000 0 -9261351.797 9918436.074 21600200.570 10 0 60387 40500.00000 0 -11844254.322 9980771.447 20267044.349 10 0 60387 41400.00000 0 -14228066.275 10218383.652 18540270.568 10 0 60387 42300.00000 0 -16355798.328 10597720.955 16453347.641 10 0 60387 43200.00000 0 -18179329.136 11076174.066 14046753.999 10 0 60387 44100.00000 0 -19661203.514 11604005.558 11367197.233 10 0 60387 45000.00000 0 -20775995.900 12126596.002 8466710.216 10 0 60387 45900.00000 0 -21511182.212 12586911.932 5401641.399 10 0 60387 46800.00000 0 -21867483.785 12928091.046 2231558.738 10 0 60387 47700.00000 0 -21858669.126 13096034.770 -981911.236 10 0 60387 48600.00000 0 -21510822.241 13041897.761 -4176286.168 10 0 60387 49500.00000 0 -20861108.778 12724367.997 -7289448.475 10 0 60387 50400.00000 0 -19956092.570 12111639.934 -10260859.199 10 0 60387 51300.00000 0 -18849674.295 11182996.140 -13032740.757 10 0 60387 52200.00000 0 -17600739.889 9929929.436 -15551204.920 10 0 60387 53100.00000 0 -16270618.580 8356757.087 -17767303.520 10 0 60387 54000.00000 0 -14920458.222 6480700.153 -19637981.207 10 0 60387 54900.00000 0 -13608628.850 4331423.669 -21126911.712 10 0 60387 55800.00000 0 -12388263.891 1950056.078 -22205201.543 10 0 60387 56700.00000 0 -11305042.302 -612271.812 -22851947.865 10 0 60387 57600.00000 0 -10395304.452 -3296308.093 -23054640.208 10 0 60387 58500.00000 0 -9684580.294 -6036903.414 -22809398.761 10 0 60387 59400.00000 0 -9186590.832 -8765485.108 -22121045.111 10 0 60387 60300.00000 0 -8902763.910 -11412679.521 -21003004.444 10 0 60387 61200.00000 0 -8822283.734 -13910974.127 -19477041.385 10 0 60387 62100.00000 0 -8922671.125 -16197309.451 -17572834.683 10 0 60387 63000.00000 0 -9170869.268 -18215493.715 -15327398.989 10 0 60387 63900.00000 0 -9524788.526 -19918340.445 -12784364.854 10 0 60387 64800.00000 0 -9935244.666 -21269440.789 -9993130.764 10 0 60387 65700.00000 0 -10348208.246 -22244497.453 -7007903.555 10 0 60387 66600.00000 0 -10707269.876 -22832165.406 -3886645.771 10 0 60387 67500.00000 0 -10956216.903 -23034365.100 -689950.416 10 0 60387 68400.00000 0 -11041612.385 -22866055.980 2520134.981 10 0 60387 69300.00000 0 -10915267.086 -22354480.673 5681311.998 10 0 60387 70200.00000 0 -10536499.735 -21537912.344 8732239.140 10 0 60387 71100.00000 0 -9874089.712 -20463958.519 11613720.339 10 0 60387 72000.00000 0 -8907839.282 -19187493.116 14269850.986 10 0 60387 72900.00000 0 -7629678.911 -17768303.869 16649099.449 10 0 60387 73800.00000 0 -6044268.330 -16268554.000 18705303.336 10 0 60387 74700.00000 0 -4169067.125 -14750164.587 20398561.552 10 0 60387 75600.00000 0 -2033870.689 -13272227.067 21696005.356 10 0 60387 76500.00000 0 320170.385 -11888553.880 22572433.973 10 0 60387 77400.00000 0 2842008.005 -10645469.310 23010802.841 10 0 60387 78300.00000 0 5472572.116 -9579932.416 23002555.384 10 0 60387 79200.00000 0 8146987.532 -8718070.087 22547791.965 10 0 60387 80100.00000 0 10797041.261 -8074181.156 21655272.627 10 0 60387 81000.00000 0 13353799.007 -7650252.916 20342253.191 10 0 60387 81900.00000 0 15750263.151 -7436010.056 18634157.292 10 0 60387 82800.00000 0 17923962.391 -7409493.820 16564089.996 10 0 60387 83700.00000 0 19819365.796 -7538146.986 14172201.611 10 0 60387 84600.00000 0 21390020.916 -7780358.941 11504913.254 10 0 60387 85500.00000 0 22600326.788 -8087405.637 8614018.639 10 0 60388 0.00000 0 23426867.595 -8405702.312 5555679.367 10 0 60388 900.00000 0 23859251.462 -8679273.582 2389331.450 10 0 60388 1800.00000 0 23900418.099 -8852335.441 -823471.337 10 0 60388 2700.00000 0 23566403.951 -8871879.681 -4020259.844 10 0 60388 3600.00000 0 22885573.726 -8690149.962 -7138869.580 10 0 60388 4500.00000 0 21897351.525 -8266903.810 -10118655.493 10 0 60388 5400.00000 0 20650505.412 -7571363.639 -12901676.811 10 0 60388 6300.00000 0 19201058.235 -6583773.137 -15433828.264 10 0 60388 7200.00000 0 17609913.289 -5296492.145 -17665895.080 10 0 60388 8100.00000 0 15940295.248 -3714582.766 -19554511.013 10 0 60388 9000.00000 0 14255114.350 -1855860.977 -21063000.718 10 0 60388 9900.00000 0 12614364.767 249589.337 -22162090.285 10 0 60388 10800.00000 0 11072666.278 2560420.468 -22830472.533 10 0 60388 11700.00000 0 9677052.002 5025501.873 -23055216.587 10 0 60388 12600.00000 0 8465094.293 7585816.973 -22832014.313 10 0 60388 13500.00000 0 7463446.462 10176697.349 -22165259.355 10 0 60388 14400.00000 0 6686860.392 12730301.960 -21067957.618 10 0 60388 15300.00000 0 6137720.038 15178238.776 -19561471.216 10 0 60388 16200.00000 0 5806109.212 17454220.345 -17675100.950 10 0 60388 17100.00000 0 5670409.579 19496643.363 -15445515.414 10 0 60388 18000.00000 0 5698402.669 21250985.373 -12916037.686 10 0 60388 18900.00000 0 5848828.549 22671919.295 -10135803.342 10 0 60388 19800.00000 0 6073334.639 23725058.168 -7158805.950 10 0 60388 20700.00000 0 6318731.784 24388257.813 -4042848.569 10 0 60388 21600.00000 0 6529461.770 24652423.600 -848421.591 10 0 60388 22500.00000 0 6650171.552 24521788.190 2362471.234 10 0 60388 23400.00000 0 6628284.987 24013649.250 5527515.589 10 0 60388 24300.00000 0 6416463.023 23157578.757 8585294.766 10 0 60388 25200.00000 0 5974847.973 21994137.598 11476479.646 10 0 60388 26100.00000 0 5272996.675 20573149.792 14144977.366 10 0 60388 27000.00000 0 4291420.449 18951608.998 16539016.513 10 0 60388 27900.00000 0 3022666.269 17191305.134 18612148.050 10 0 60388 28800.00000 0 1471892.796 15356270.439 20324142.942 10 0 60388 29700.00000 0 -343083.956 13510151.590 21641769.524 10 0 60388 30600.00000 0 -2392278.558 11713617.289 22539436.091 10 0 60388 31500.00000 0 -4634538.667 10021909.134 22999686.654 10 0 60388 32400.00000 0 -7019021.797 8482637.380 23013540.581 10 0 60388 33300.00000 0 -9487086.343 7133912.965 22580669.691 10 0 60388 34200.00000 0 -11974519.577 6002893.168 21709409.215 10 0 60388 35100.00000 0 -14414011.227 5104801.066 20416602.092 10 0 60388 36000.00000 0 -16737770.871 4442459.259 18727279.005 10 0 60388 36900.00000 0 -18880180.994 4006356.996 16674179.648 10 0 60388 37800.00000 0 -20780375.764 3775247.488 14297123.707 10 0 60388 38700.00000 0 -22384638.258 3717250.005 11642242.967 10 0 60388 39600.00000 0 -23648516.023 3791410.047 8761088.833 10 0 60388 40500.00000 0 -24538566.322 3949651.412 5709632.194 10 0 60388 41400.00000 0 -25033657.687 4139037.248 2547174.864 10 0 60388 42300.00000 0 -25125772.853 4304243.869 -664806.010 10 0 60388 43200.00000 0 -24820279.135 4390141.859 -3863857.720 10 0 60388 44100.00000 0 -24135654.755 4344374.228 -6987771.985 10 0 60388 45000.00000 0 -23102682.662 4119821.420 -9975800.604 10 0 60388 45900.00000 0 -21763146.018 3676847.655 -12769842.379 10 0 60388 46800.00000 0 -20168080.549 2985232.442 -15315577.505 10 0 60388 47700.00000 0 -18375657.723 2025704.488 -17563526.813 10 0 60388 48600.00000 0 -16448788.149 791012.179 -19470014.989 10 0 60388 49500.00000 0 -14452546.150 -713515.496 -20998018.994 10 0 60388 50400.00000 0 -12451523.763 -2469942.091 -22117885.383 10 0 60388 51300.00000 0 -10507224.989 -4448232.954 -22807902.994 10 0 60388 52200.00000 0 -8675609.044 -6607280.040 -23054720.377 10 0 60388 53100.00000 0 -7004884.862 -8896400.176 -22853600.402 10 0 60388 54000.00000 0 -5533648.172 -11257244.890 -22208507.630 10 0 60388 54900.00000 0 -4289437.986 -13626042.825 -21132027.122 10 0 60388 55800.00000 0 -3287771.611 -15936081.782 -19645116.566 10 0 60388 56700.00000 0 -2531697.213 -18120327.570 -17776696.604 10 0 60388 57600.00000 0 -2011881.260 -20114070.993 -15563087.337 10 0 60388 58500.00000 0 -1707225.818 -21857493.085 -13047301.800 10 0 60388 59400.00000 0 -1585988.471 -23298041.971 -10278210.002 10 0 60388 60300.00000 0 -1607356.590 -24392522.542 -7309589.600 10 0 60388 61200.00000 0 -1723408.636 -25108811.942 -4199081.574 10 0 60388 62100.00000 0 -1881378.887 -25427129.505 -1007071.190 10 0 60388 63000.00000 0 -2026129.301 -25340808.346 2204483.976 10 0 60388 63900.00000 0 -2102723.473 -24856536.649 5373256.012 10 0 60388 64800.00000 0 -2058993.435 -23994058.915 8437755.178 10 0 60388 65700.00000 0 -1847990.393 -22785350.012 11338521.395 10 0 60388 66600.00000 0 -1430215.461 -21273296.909 14019275.512 10 0 60388 67500.00000 0 -775535.779 -19509943.483 16428008.165 10 0 60388 68400.00000 0 135295.320 -17554371.862 18517985.328 10 0 60388 69300.00000 0 1309578.811 -15470308.814 20248651.449 10 0 60388 70200.00000 0 2742116.544 -13323556.871 21586413.105 10 0 60388 71100.00000 0 4415188.187 -11179356.938 22505288.536 10 0 60388 72000.00000 0 6299060.801 -9099791.836 22987410.872 10 0 60388 72900.00000 0 8353011.112 -7141338.259 23023375.661 10 0 60388 73800.00000 0 10526819.341 -5352668.411 22612426.081 10 0 60388 74700.00000 0 12762673.720 -3772792.188 21762472.162 10 0 60388 75600.00000 0 14997407.712 -2429616.603 20489943.277 10 0 60388 76500.00000 0 17164977.909 -1338981.877 18819476.186 10 0 60388 77400.00000 0 19199080.239 -504213.881 16783443.980 10 0 60388 78300.00000 0 21035795.994 83788.933 14421334.215 10 0 60388 79200.00000 0 22616157.537 445938.262 11778987.552 10 0 60388 80100.00000 0 23888526.415 613834.793 8907711.015 10 0 60388 81000.00000 0 24810684.104 628190.892 5863282.701 10 0 60388 81900.00000 0 25351547.337 536864.297 2704867.064 10 0 60388 82800.00000 0 25492435.486 392586.553 -506137.924 10 0 60388 83700.00000 0 25227836.287 250483.111 -3707298.948 10 0 60388 84600.00000 0 24565637.247 165490.983 -6836366.910 10 0 60388 85500.00000 0 23526812.734 189784.338 -9832493.377 10 0 60389 0.00000 0 22144579.959 370318.111 -12637419.224 10 0 60389 900.00000 0 20463058.544 746594.817 -15196613.128 10 0 60389 1800.00000 0 18535492.169 1348749.806 -17460333.502 10 0 60389 2700.00000 0 16422104.709 2196037.176 -19384597.909 10 0 60389 3600.00000 0 14187682.796 3295780.941 -20932037.279 10 0 60389 4500.00000 0 11898985.555 4642836.563 -22072620.027 10 0 60389 5400.00000 0 9622089.965 6219586.250 -22784232.114 10 0 60389 6300.00000 0 7419782.540 7996468.967 -23053102.327 10 0 60389 7200.00000 0 5349105.785 9933023.601 -22874065.027 10 0 60389 8100.00000 0 3459161.029 11979402.284 -22250655.818 10 0 60389 9000.00000 0 1789258.303 14078291.217 -21195038.660 10 0 60389 9900.00000 0 367489.242 16167159.303 -19727766.137 10 0 60389 10800.00000 0 -790218.763 18180741.224 -17877377.657 10 0 60389 11700.00000 0 -1680529.152 20053651.737 -15679843.338 10 0 60389 12600.00000 0 -2312587.172 21723022.401 -13177864.296 10 0 60389 13500.00000 0 -2707381.290 23131050.866 -10420042.759 10 0 60389 14400.00000 0 -2896603.286 24227356.423 -7459937.933 10 0 60389 15300.00000 0 -2921056.217 24971043.425 -4355025.939 10 0 60389 16200.00000 0 -2828678.433 25332386.367 -1165583.953 10 0 60389 17100.00000 0 -2672267.911 25294066.166 2046479.707 10 0 60389 18000.00000 0 -2507003.761 24851905.932 5218826.643 10 0 60389 18900.00000 0 -2387870.208 24015075.519 8289897.162 10 0 60389 19800.00000 0 -2367092.372 22805756.337 11200103.180 10 0 60389 20700.00000 0 -2491692.611 21258280.532 13892982.064 10 0 60389 21600.00000 0 -2801270.933 19417780.525 16316289.094 10 0 60389 22500.00000 0 -3326103.559 17338405.260 18423007.634 10 0 60389 23400.00000 0 -4085640.216 15081177.457 20172257.744 10 0 60389 24300.00000 0 -5087464.031 12711580.896 21530086.109 10 0 60389 25200.00000 0 -6326758.547 10296977.766 22470122.479 10 0 60389 26100.00000 0 -7786305.222 7903963.023 22974090.333 10 0 60389 27000.00000 0 -9437012.708 5595765.096 23032162.237 10 0 60389 27900.00000 0 -11238957.082 3429800.220 22643153.132 10 0 60389 28800.00000 0 -13142890.959 1455481.354 21814547.739 10 0 60389 29700.00000 0 -15092159.784 -287627.990 20562361.222 10 0 60389 30600.00000 0 -17024946.553 -1771238.912 18910835.217 10 0 60389 31500.00000 0 -18876752.209 -2979282.536 16891974.441 10 0 60389 32400.00000 0 -20583008.816 -3908336.873 14544932.039 10 0 60389 33300.00000 0 -22081716.666 -4567517.910 11915254.804 10 0 60389 34200.00000 0 -23315994.956 -4977840.079 9054002.280 10 0 60389 35100.00000 0 -24236438.930 -5171073.655 6016756.414 10 0 60389 36000.00000 0 -24803184.094 -5188147.850 2862540.788 10 0 60389 36900.00000 0 -24987590.134 -5077167.765 -347329.373 10 0 60389 37800.00000 0 -24773473.032 -4891129.826 -3550443.686 10 0 60389 38700.00000 0 -24157832.843 -4685433.283 -6684515.702 10 0 60389 39600.00000 0 -23151045.919 -4515294.109 -9688600.076 10 0 60389 40500.00000 0 -21776513.028 -4433171.861 -12504283.381 10 0 60389 41400.00000 0 -20069777.902 -4486319.425 -15076824.670 10 0 60389 42300.00000 0 -18077153.123 -4714560.333 -17356223.039 10 0 60389 43200.00000 0 -15853911.034 -5148388.486 -19298191.116 10 0 60389 44100.00000 0 -13462115.525 -5807471.332 -20865015.506 10 0 60389 45000.00000 0 -10968185.507 -6699620.297 -22026287.611 10 0 60389 45900.00000 0 -8440291.837 -7820272.450 -22759491.048 10 0 60389 46800.00000 0 -5945696.103 -9152505.740 -23050434.749 10 0 60389 47700.00000 0 -3548141.832 -10667587.664 -22893523.878 10 0 60389 48600.00000 0 -1305406.135 -12326034.864 -22291863.851 10 0 60389 49500.00000 0 732887.139 -14079139.728 -21257195.817 10 0 60389 50400.00000 0 2527102.753 -15870900.556 -19809665.162 10 0 60389 51300.00000 0 4049002.763 -17640274.930 -17977427.634 10 0 60389 52200.00000 0 5282671.219 -19323662.429 -15796100.702 10 0 60389 53100.00000 0 6224917.770 -20857513.100 -13308070.723 10 0 60389 54000.00000 0 6885144.860 -22180952.721 -10561669.182 10 0 60389 54900.00000 0 7284685.598 -23238315.125 -7610233.843 10 0 60389 55800.00000 0 7455641.519 -23981475.501 -4511072.973 10 0 60389 56700.00000 0 7439270.415 -24371886.882 -1324352.733 10 0 60389 57600.00000 0 7283993.275 -24382234.361 1888070.624 10 0 60389 58500.00000 0 7043105.313 -23997637.553 5063850.871 10 0 60389 59400.00000 0 6772288.461 -23216350.708 8141360.821 10 0 60389 60300.00000 0 6527030.948 -22049931.005 11060886.644 10 0 60389 61200.00000 0 6360063.368 -20522867.729 13765784.228 10 0 60389 62100.00000 0 6318919.822 -18671687.630 16203575.238 10 0 60389 63000.00000 0 6443727.304 -16543573.534 18326961.870 10 0 60389 63900.00000 0 6765316.788 -14194553.473 20094740.927 10 0 60389 64800.00000 0 7303735.946 -11687335.360 21472599.996 10 0 60389 65700.00000 0 8067226.511 -9088876.713 22433780.790 10 0 60389 66600.00000 0 9051709.921 -6467789.847 22959597.254 10 0 60389 67500.00000 0 10240803.664 -3891689.554 23039798.757 10 0 60389 68400.00000 0 11606368.692 -1424592.566 22672771.485 10 0 60389 69300.00000 0 13109566.133 875524.017 21865574.070 10 0 60389 70200.00000 0 14702380.257 2958904.788 20633806.432 10 0 60389 71100.00000 0 16329545.195 4785848.662 19001313.831 10 0 60389 72000.00000 0 17930795.769 6328116.526 16999731.162 10 0 60389 72900.00000 0 19443349.003 7569855.907 14667875.511 10 0 60389 73800.00000 0 20804512.877 8508004.701 12050997.961 10 0 60389 74700.00000 0 21954313.072 9152157.668 9199908.536 10 0 60389 75600.00000 0 22838027.268 9523901.954 6169990.800 10 0 60389 76500.00000 0 23408520.079 9655650.263 3020125.057 10 0 60389 77400.00000 0 23628279.682 9589021.608 -188458.761 10 0 60389 78300.00000 0 23471069.611 9372838.810 -3393375.834 10 0 60389 79200.00000 0 22923125.280 9060828.312 -6532304.999 10 0 60389 80100.00000 0 21983843.970 8709120.552 -9544206.567 10 0 60389 81000.00000 0 20665938.516 8373657.716 -12370514.979 10 0 60389 81900.00000 0 18995047.616 8107619.516 -14956282.379 10 0 60389 82800.00000 0 17008818.687 7958976.842 -17251250.266 10 0 60389 83700.00000 0 14755501.498 7968277.495 -19210828.071 10 0 60389 84600.00000 0 12292111.283 8166758.198 -20796959.580 10 0 60389 85500.00000 0 9682238.068 8574863.086 -21978860.493 99